Date String (YYYY-MM-DD hh:mm:ss) UTC,Instrument flags,absolute air pressure of the measurement (hPa),sample flow rate (lpm),inlet stack bypass flow (lpm),air temperature of the measurement (°C),ambient temperature measured by the external sensor (°C),aerosol sample conditioner tube jacket temperature (°C),OPC LED temperature (°C),internal box temperature (°C),relative humidity of the measurement (%),span deviation,mass concentration of particles derived from Lorenz-Mie calculation of OPC scattering (μg/m³),mass concentration of particles derived from Lorenz-Mie calculation of OPC scattering (μg/m³),mass concentration of particles derived from Lorenz-Mie calculation of OPC scattering (μg/m³)
DateTimeUTC,F1_M11,P_M11,Q1_M11,Q2_M11,T1_M11,T2_M11,T3_M11,T4_M11,T5_M11,U1_M11,ZSPAN_M11,X0_M11,X2_M11,X1_M11
2024-01-11 16:00:00,SystemResetWarning,0813.2,5.00,000.00,018.7,017.9,000.0,027.2,020.0,11.9,0000.0,0003.15,0002.08,0001.66
2024-01-11 16:01:00,SystemResetWarning,0813.2,5.00,000.00,018.7,017.9,000.0,027.2,020.0,11.9,0000.0,0003.17,0002.09,0001.67
2024-01-11 16:02:00,SystemResetWarning,0813.2,5.01,000.00,018.7,017.9,000.0,027.2,020.0,11.8,0000.0,0003.29,0002.13,0001.70
2024-01-11 16:03:00,SystemResetWarning,0813.3,5.02,000.00,018.8,018.1,000.0,027.2,020.3,11.8,0000.0,0003.28,0002.14,0001.71
2024-01-11 16:04:00,SystemResetWarning,0813.3,5.00,000.00,018.9,018.9,000.0,027.2,020.7,11.7,0000.0,0003.27,0002.15,0001.73
2024-01-11 16:05:00,SystemResetWarning,0813.4,5.00,000.00,019.0,019.1,000.0,027.2,020.6,11.6,0000.0,0003.36,0002.17,0001.73
2024-01-11 16:06:00,SystemResetWarning,0813.3,4.99,000.00,019.0,018.9,000.0,027.2,020.3,11.5,0000.0,0003.39,0002.17,0001.74
2024-01-11 16:07:00,SystemResetWarning,0813.3,4.99,000.00,019.0,018.8,000.0,027.2,020.1,11.4,0000.0,0003.34,0002.18,0001.75
2024-01-11 16:08:00,SystemResetWarning,0813.4,5.00,000.00,019.0,018.7,000.0,027.2,020.1,11.4,0000.0,0003.37,0002.20,0001.73
2024-01-11 16:09:00,SystemResetWarning,0813.4,5.00,000.00,018.9,018.6,000.0,027.2,020.1,11.3,0000.0,0003.33,0002.18,0001.74
2024-01-11 16:10:00,SystemResetWarning,0813.4,5.00,000.00,018.9,018.5,000.0,027.2,020.1,11.3,0000.0,0003.29,0002.17,0001.75
2024-01-11 16:11:00,SystemResetWarning,0813.4,5.01,000.00,018.9,018.4,000.0,027.2,020.1,11.2,0000.0,0003.26,0002.17,0001.75
2024-01-11 16:12:00,SystemResetWarning,0813.4,5.00,000.00,018.9,018.4,000.0,027.2,020.0,11.2,0000.0,0003.32,0002.18,0001.76
2024-01-11 16:13:00,SystemResetWarning,0813.4,5.00,000.00,018.9,018.3,000.0,027.2,020.0,11.2,0000.0,0003.29,0002.20,0001.76
2024-01-11 16:14:00,SystemResetWarning,0813.4,4.99,000.00,018.8,018.3,000.0,027.2,020.0,11.2,0000.0,0003.32,0002.22,0001.76
2024-01-11 16:15:00,SystemResetWarning,0813.4,4.99,000.00,018.8,018.3,000.0,027.2,020.0,11.2,0000.0,0003.49,0002.26,0001.75
2024-01-11 16:16:00,SystemResetWarning,0813.4,5.00,000.00,018.8,018.3,000.0,027.2,020.0,11.2,0000.0,0003.63,0002.28,0001.75
2024-01-11 16:17:00,SystemResetWarning,0813.4,5.01,000.00,018.8,018.2,000.0,027.2,020.0,10.8,0000.0,0003.99,0002.35,0001.76
2024-01-11 16:18:00,SystemResetWarning,0813.3,5.00,000.00,018.8,018.2,000.0,027.2,020.0,10.4,0000.0,0004.07,0002.39,0001.78
2024-01-11 16:19:00,SystemResetWarning,0813.4,5.00,000.00,018.8,018.2,000.0,027.2,020.0,10.4,0000.0,0004.00,0002.36,0001.79
2024-01-11 16:20:00,SystemResetWarning,0813.3,5.01,000.00,018.8,018.2,000.0,027.2,020.0,10.5,0000.0,0003.96,0002.35,0001.79
2024-01-11 16:21:00,SystemResetWarning,0813.4,5.00,000.00,018.8,018.1,000.0,027.2,020.0,10.2,0000.0,0004.29,0002.38,0001.79
2024-01-11 16:22:00,SystemResetWarning,0813.3,4.99,000.00,018.8,018.1,000.0,027.2,020.0,10.1,0000.0,0004.71,0002.37,0001.78
2024-01-11 16:23:00,SystemResetWarning,0813.4,4.99,000.00,018.8,018.1,000.0,027.2,020.0,9.8,0000.0,0004.62,0002.35,0001.77
2024-01-11 16:24:00,SystemResetWarning,0813.4,5.00,000.00,018.8,018.1,000.0,027.2,020.0,9.7,0000.0,0004.58,0002.33,0001.75
2024-01-11 16:25:00,SystemResetWarning,0813.4,5.00,000.00,018.8,018.0,000.0,027.2,020.0,9.7,0000.0,0004.65,0002.30,0001.73
2024-01-11 16:26:00,SystemResetWarning,0813.5,5.00,000.00,018.8,018.0,000.0,027.2,020.0,9.8,0000.0,0004.49,0002.24,0001.71
2024-01-11 16:27:00,SystemResetWarning,0813.5,5.00,000.00,018.8,018.0,000.0,027.2,020.0,9.8,0000.0,0004.50,0002.21,0001.70
2024-01-11 16:28:00,SystemResetWarning,0813.5,5.00,000.00,018.8,018.0,000.0,027.2,020.0,9.8,0000.0,0004.12,0002.11,0001.67
2024-01-11 16:29:00,SystemResetWarning,0813.5,5.00,000.00,018.8,018.0,000.0,027.2,020.0,9.8,0000.0,0004.31,0002.04,0001.64
2024-01-11 16:30:00,SystemResetWarning,0813.6,5.00,000.00,018.8,018.0,000.0,027.2,020.0,9.6,0000.0,0004.79,0002.05,0001.63
2024-01-11 16:31:00,SystemResetWarning,0813.5,5.00,000.00,018.8,018.0,000.0,027.2,020.0,9.5,0000.0,0004.91,0002.07,0001.61
2024-01-11 16:32:00,SystemResetWarning,0813.6,5.00,000.00,018.8,018.0,000.0,027.2,020.0,9.3,0000.0,0004.67,0002.02,0001.59
2024-01-11 16:33:00,SystemResetWarning,0813.6,5.00,000.00,018.8,018.0,000.0,027.2,020.0,9.2,0000.0,0003.99,0001.94,0001.53
2024-01-11 16:34:00,SystemResetWarning,0813.6,5.01,000.00,018.8,018.0,000.0,027.1,020.0,9.1,0000.0,0004.02,0001.88,0001.47
2024-01-11 16:35:00,SystemResetWarning,0813.6,5.01,000.00,018.8,018.0,000.0,027.2,020.0,9.1,0000.0,0003.99,0001.83,0001.42
2024-01-11 16:36:00,SystemResetWarning,0813.7,5.00,000.00,018.8,018.0,000.0,027.2,020.0,9.1,0000.0,0003.86,0001.79,0001.37
2024-01-11 16:37:00,SystemResetWarning,0813.8,4.99,000.00,018.7,018.0,000.0,027.2,020.0,9.1,0000.0,0003.72,0001.70,0001.29
2024-01-11 16:38:00,SystemResetWarning,0813.9,4.99,000.00,018.8,018.0,000.0,027.2,020.0,9.1,0000.0,0003.62,0001.62,0001.20
2024-01-11 16:39:00,SystemResetWarning,0813.9,5.00,000.00,018.8,018.0,000.0,027.2,020.0,9.1,0000.0,0004.40,0001.56,0001.13
2024-01-11 16:40:00,SystemResetWarning,0813.9,4.99,000.00,018.8,018.0,000.0,027.2,020.0,9.1,0000.0,0004.54,0001.51,0001.06
2024-01-11 16:41:00,SystemResetWarning,0813.9,5.00,000.00,018.8,018.0,000.0,027.2,020.0,9.1,0000.0,0003.85,0001.42,0001.00
2024-01-11 16:42:00,SystemResetWarning,0813.9,5.01,000.00,018.7,017.9,000.0,027.2,020.0,9.1,0000.0,0004.08,0001.35,0000.94
2024-01-11 16:43:00,SystemResetWarning,0814.0,5.00,000.00,018.7,017.9,000.0,027.2,020.0,9.2,0000.0,0004.26,0001.30,0000.88
2024-01-11 16:44:00,SystemResetWarning,0814.0,4.99,000.00,018.7,017.9,000.0,027.2,020.0,9.2,0000.0,0004.19,0001.28,0000.85
2024-01-11 16:45:00,SystemResetWarning,0814.1,4.99,000.00,018.7,017.9,000.0,027.2,020.0,9.4,0000.0,0003.99,0001.23,0000.83
2024-01-11 16:46:00,SystemResetWarning,0814.1,4.99,000.00,018.7,017.9,000.0,027.2,020.0,9.6,0000.0,0003.86,0001.18,0000.82
2024-01-11 16:47:00,SystemResetWarning,0814.1,5.00,000.00,018.7,017.9,000.0,027.2,020.0,9.8,0000.0,0003.78,0001.14,0000.80
2024-01-11 16:48:00,SystemResetWarning,0814.1,5.00,000.00,018.7,017.9,000.0,027.2,020.0,9.9,0000.0,0003.79,0001.16,0000.81
2024-01-11 16:49:00,SystemResetWarning,0814.1,5.00,000.00,018.7,017.9,000.0,027.2,020.0,10.0,0000.0,0003.89,0001.20,0000.83
2024-01-11 16:50:00,SystemResetWarning,0814.2,5.00,000.00,018.7,017.9,000.0,027.2,020.0,10.2,0000.0,0003.34,0001.19,0000.85
2024-01-11 16:51:00,SystemResetWarning,0814.3,5.00,000.00,018.7,017.9,000.0,027.2,020.0,10.4,0000.0,0002.51,0001.18,0000.87
2024-01-11 16:52:00,SystemResetWarning,0814.3,5.00,000.00,018.7,017.9,000.0,027.2,020.0,10.5,0000.0,0002.67,0001.20,0000.87
2024-01-11 16:53:00,SystemResetWarning,0814.3,5.00,000.00,018.8,017.9,000.0,027.2,020.2,10.6,0000.0,0002.51,0001.18,0000.87
2024-01-11 16:54:00,SystemResetWarning,0814.4,5.01,000.00,018.9,018.4,000.0,027.2,020.6,10.6,0000.0,0002.10,0001.18,0000.88
2024-01-11 16:55:00,SystemResetWarning,0814.5,5.00,000.00,019.0,018.9,000.0,027.2,020.7,10.6,0000.0,0002.14,0001.17,0000.89
2024-01-11 16:56:00,SystemResetWarning,0814.4,4.99,000.00,019.0,018.9,000.0,027.2,020.3,10.5,0000.0,0002.22,0001.22,0000.91
2024-01-11 16:57:00,SystemResetWarning,0814.5,4.99,000.00,018.9,018.6,000.0,027.2,020.0,10.4,0000.0,0002.29,0001.27,0000.94
2024-01-11 16:58:00,SystemResetWarning,0814.6,5.01,000.00,018.9,018.4,000.0,027.2,020.0,10.4,0000.0,0002.32,0001.30,0000.99
2024-01-11 16:59:00,SystemResetWarning,0814.6,5.00,000.00,018.9,018.2,000.0,027.3,020.0,10.3,0000.0,0002.61,0001.40,0001.07
